Zurück zum Katalog

STARLINK-3705

AktivKommunikationVLEO
NORAD 52103·PAYLOAD·🇺🇸 United States

Gestartet Mar 19, 2022 von Cape Canaveral Space Force Station

Loading…

Nächste Überflüge (nächste 24 Stunden)

TLE

AktuellSource: CelesTrak SupGP

Epoche: Sep 14, 2026, 21:16 UTC

1 52103C 22029R   26257.88659722  .00009415  00000+0  27832-3 0  2575
2 52103  53.1562 295.6096 0001138  91.5324  28.5902 15.34369431    15

Verfolge STARLINK-3705 in Echtzeit mit AllMySat

Download on the App Store